Torna al catalogo

FREGAT DEB

AttivoUNKNOWN
NORAD 45814·DEBRIS·🇷🇺 Russia

Lanciato Jul 18, 2011 da Baikonur Cosmodrome

Loading…

Prossimi Passaggi (prossime 24 ore)

TLE

AggiornatoSource: Space-Track

Epoca: Sep 13, 2026, 22:52 UTC

1 45814U 11037AY  26256.95302978  .00006062  00000-0  40093-1 0  9999
2 45814  51.1178 337.0020 0971363 172.4115 189.2672 11.56390190262002

Traccia FREGAT DEB in tempo reale con AllMySat

Download on the App Store